Time,TemperatureF,DewpointF,PressureIn,WindDirection,WindDirectionDegrees,WindSpeedMPH,WindSpeedGustMPH,Humidity,HourlyPrecipIn,Conditions,Clouds,dailyrainin,SoftwareType,DateUTC
2013-02-04 00:03:00,11.3,9.4,30.04,NNW,327,0.0,0.0,92,0.00,,,0.01,Wunderground v.1.15,2013-02-04 06:03:00,
2013-02-04 00:08:00,11.3,9.4,30.03,NNW,327,0.0,0.0,92,0.00,,,0.01,Wunderground v.1.15,2013-02-04 06:08:00,
2013-02-04 00:14:00,11.3,9.4,30.03,NNW,327,0.0,0.0,92,0.00,,,0.01,Wunderground v.1.15,2013-02-04 06:14:00,
2013-02-04 00:19:00,11.3,9.4,30.03,NNW,327,0.0,0.0,92,0.00,,,0.01,Wunderground v.1.15,2013-02-04 06:19:00,
2013-02-04 00:25:00,11.3,9.4,30.02,NNW,327,0.0,0.0,92,0.00,,,0.01,Wunderground v.1.15,2013-02-04 06:25:00,
2013-02-04 00:31:00,11.2,9.3,30.02,NNW,327,0.0,0.0,92,0.00,,,0.01,Wunderground v.1.15,2013-02-04 06:31:00,
2013-02-04 00:37:00,11.2,9.3,30.02,NNW,327,0.0,0.0,92,0.00,,,0.01,Wunderground v.1.15,2013-02-04 06:37:00,
2013-02-04 00:42:00,11.3,9.4,30.02,NNW,327,0.0,0.0,92,0.00,,,0.01,Wunderground v.1.15,2013-02-04 06:42:00,
2013-02-04 00:48:00,11.2,9.3,30.02,NNW,327,0.0,0.0,92,0.00,,,0.01,Wunderground v.1.15,2013-02-04 06:48:00,
2013-02-04 00:54:00,11.2,9.3,30.02,NNW,327,0.0,0.0,92,0.00,,,0.01,Wunderground v.1.15,2013-02-04 06:54:00,
2013-02-04 01:00:00,11.1,9.2,30.02,NNW,327,0.0,0.0,92,0.00,,,0.01,Wunderground v.1.15,2013-02-04 07:00:00,
2013-02-04 01:05:00,11.1,9.2,30.01,NNW,327,0.0,0.0,92,0.00,,,0.01,Wunderground v.1.15,2013-02-04 07:05:00,
2013-02-04 01:11:00,11.1,9.2,30.01,NNW,327,0.0,0.0,92,0.00,,,0.01,Wunderground v.1.15,2013-02-04 07:11:00,
2013-02-04 01:17:00,11.1,9.2,30.01,NNW,327,0.0,1.0,92,0.00,,,0.01,Wunderground v.1.15,2013-02-04 07:17:00,
2013-02-04 01:23:00,11.1,9.2,30.01,NNW,327,2.0,2.0,92,0.00,,,0.01,Wunderground v.1.15,2013-02-04 07:23:00,
2013-02-04 01:29:00,11.0,9.1,30.00,NNW,327,0.0,2.0,92,0.00,,,0.01,Wunderground v.1.15,2013-02-04 07:29:00,
2013-02-04 01:34:00,11.0,9.1,30.00,NNW,327,0.0,2.0,92,0.00,,,0.01,Wunderground v.1.15,2013-02-04 07:34:00,
2013-02-04 01:39:00,11.0,9.1,30.00,NNW,327,0.0,2.0,92,0.00,,,0.01,Wunderground v.1.15,2013-02-04 07:39:00,
2013-02-04 01:45:00,10.9,9.0,30.00,NNW,327,3.0,3.0,92,0.00,,,0.01,Wunderground v.1.15,2013-02-04 07:45:00,
2013-02-04 01:51:00,10.9,9.0,30.00,NNW,327,0.0,1.0,92,0.00,,,0.01,Wunderground v.1.15,2013-02-04 07:51:00,
2013-02-04 01:57:00,10.9,9.3,30.00,NNW,327,2.0,3.0,93,0.00,,,0.01,Wunderground v.1.15,2013-02-04 07:57:00,
2013-02-04 02:02:00,10.9,9.0,30.00,NNW,327,2.0,2.0,92,0.00,,,0.01,Wunderground v.1.15,2013-02-04 08:02:00,
2013-02-04 02:07:00,10.9,9.0,30.00,NNW,327,1.0,4.0,92,0.00,,,0.01,Wunderground v.1.15,2013-02-04 08:07:00,
2013-02-04 02:12:00,10.8,8.9,30.00,NNW,327,3.0,6.0,92,0.00,,,0.01,Wunderground v.1.15,2013-02-04 08:12:00,
2013-02-04 02:17:00,10.6,8.7,30.00,NNW,327,4.0,6.0,92,0.00,,,0.01,Wunderground v.1.15,2013-02-04 08:17:00,
2013-02-04 02:22:00,10.5,8.9,29.99,NNW,327,2.0,4.0,93,0.00,,,0.01,Wunderground v.1.15,2013-02-04 08:22:00,
2013-02-04 02:27:00,10.4,8.8,29.99,NNW,327,5.0,5.0,93,0.00,,,0.01,Wunderground v.1.15,2013-02-04 08:27:00,
2013-02-04 02:32:00,10.4,8.8,29.99,NNW,327,2.0,6.0,93,0.00,,,0.01,Wunderground v.1.15,2013-02-04 08:32:00,
2013-02-04 02:37:00,10.3,8.4,29.99,NNW,327,1.0,6.0,92,0.00,,,0.01,Wunderground v.1.15,2013-02-04 08:37:00,
2013-02-04 02:42:00,10.3,8.4,29.99,NNW,327,4.0,4.0,92,0.00,,,0.01,Wunderground v.1.15,2013-02-04 08:42:00,
2013-02-04 02:47:00,10.3,8.4,29.99,NNW,327,1.0,5.0,92,0.00,,,0.01,Wunderground v.1.15,2013-02-04 08:47:00,
2013-02-04 02:52:00,10.3,8.7,29.99,NNW,327,2.0,3.0,93,0.00,,,0.01,Wunderground v.1.15,2013-02-04 08:52:00,
2013-02-04 02:57:00,10.3,8.4,29.98,NNW,327,2.0,6.0,92,0.00,,,0.01,Wunderground v.1.15,2013-02-04 08:57:00,
2013-02-04 03:02:00,10.3,8.4,29.98,NNW,327,3.0,4.0,92,0.00,,,0.01,Wunderground v.1.15,2013-02-04 09:02:00,
2013-02-04 03:07:00,10.2,8.3,29.98,NNW,327,2.0,4.0,92,0.00,,,0.01,Wunderground v.1.15,2013-02-04 09:07:00,
2013-02-04 03:12:00,10.2,8.3,29.98,NNW,327,1.0,3.0,92,0.00,,,0.01,Wunderground v.1.15,2013-02-04 09:12:00,
2013-02-04 03:17:00,10.2,8.3,29.98,NNW,327,1.0,6.0,92,0.00,,,0.01,Wunderground v.1.15,2013-02-04 09:17:00,
2013-02-04 03:23:00,10.1,8.2,29.98,NNW,327,3.0,6.0,92,0.00,,,0.01,Wunderground v.1.15,2013-02-04 09:23:00,
2013-02-04 03:28:00,10.0,8.1,29.98,NNW,327,3.0,6.0,92,0.00,,,0.01,Wunderground v.1.15,2013-02-04 09:28:00,
2013-02-04 03:33:00,10.0,8.1,29.98,NNW,327,1.0,5.0,92,0.00,,,0.01,Wunderground v.1.15,2013-02-04 09:33:00,
2013-02-04 03:38:00,9.9,8.0,29.98,NNW,327,3.0,5.0,92,0.00,,,0.01,Wunderground v.1.15,2013-02-04 09:38:00,
2013-02-04 03:43:00,9.9,8.0,29.98,NNW,327,2.0,5.0,92,0.00,,,0.01,Wunderground v.1.15,2013-02-04 09:43:00,
2013-02-04 03:48:00,9.9,8.0,29.98,NNW,327,6.0,6.0,92,0.00,,,0.01,Wunderground v.1.15,2013-02-04 09:48:00,
2013-02-04 03:53:00,9.8,7.9,29.98,NNW,327,3.0,6.0,92,0.00,,,0.01,Wunderground v.1.15,2013-02-04 09:53:00,
2013-02-04 03:58:00,9.8,7.9,29.98,NNW,327,3.0,6.0,92,0.00,,,0.01,Wunderground v.1.15,2013-02-04 09:58:00,
2013-02-04 04:03:00,9.8,7.9,29.98,NNW,327,3.0,8.0,92,0.00,,,0.01,Wunderground v.1.15,2013-02-04 10:03:00,
2013-02-04 04:08:00,9.7,7.8,29.98,NNW,327,2.0,8.0,92,0.00,,,0.01,Wunderground v.1.15,2013-02-04 10:08:00,
2013-02-04 04:13:00,9.7,7.8,29.98,NNW,327,5.0,6.0,92,0.00,,,0.01,Wunderground v.1.15,2013-02-04 10:13:00,
2013-02-04 04:18:00,9.7,7.8,29.98,NNW,327,5.0,7.0,92,0.00,,,0.01,Wunderground v.1.15,2013-02-04 10:18:00,
2013-02-04 04:23:00,9.6,7.7,29.98,NNW,327,3.0,6.0,92,0.00,,,0.01,Wunderground v.1.15,2013-02-04 10:23:00,
2013-02-04 04:28:00,9.6,7.7,29.98,NNW,327,2.0,7.0,92,0.00,,,0.01,Wunderground v.1.15,2013-02-04 10:28:00,
2013-02-04 04:33:00,9.7,7.8,29.98,NNW,327,2.0,6.0,92,0.00,,,0.01,Wunderground v.1.15,2013-02-04 10:33:00,
2013-02-04 04:38:00,9.6,7.7,29.98,NNW,327,2.0,7.0,92,0.00,,,0.01,Wunderground v.1.15,2013-02-04 10:38:00,
2013-02-04 04:43:00,9.6,7.7,29.98,NNW,327,3.0,9.0,92,0.00,,,0.01,Wunderground v.1.15,2013-02-04 10:43:00,
2013-02-04 04:48:00,9.6,7.7,29.98,NNW,327,4.0,9.0,92,0.00,,,0.01,Wunderground v.1.15,2013-02-04 10:48:00,
2013-02-04 04:53:00,9.6,7.7,29.98,NNW,327,6.0,8.0,92,0.00,,,0.01,Wunderground v.1.15,2013-02-04 10:53:00,
2013-02-04 04:58:00,9.6,7.7,29.98,NNW,327,3.0,9.0,92,0.00,,,0.01,Wunderground v.1.15,2013-02-04 10:58:00,
2013-02-04 05:03:00,9.6,7.7,29.98,NNW,327,3.0,8.0,92,0.00,,,0.01,Wunderground v.1.15,2013-02-04 11:03:00,
2013-02-04 05:08:00,9.5,7.6,29.98,NNW,327,4.0,8.0,92,0.00,,,0.01,Wunderground v.1.15,2013-02-04 11:08:00,
2013-02-04 05:13:00,9.5,7.6,29.98,NNW,327,7.0,7.0,92,0.00,,,0.01,Wunderground v.1.15,2013-02-04 11:13:00,
2013-02-04 05:18:00,9.5,7.6,29.98,NNW,327,2.0,7.0,92,0.00,,,0.01,Wunderground v.1.15,2013-02-04 11:18:00,
2013-02-04 05:23:00,9.6,7.7,29.98,NNW,327,3.0,5.0,92,0.00,,,0.01,Wunderground v.1.15,2013-02-04 11:23:00,
2013-02-04 05:28:00,9.6,7.7,29.98,NNW,327,3.0,6.0,92,0.00,,,0.01,Wunderground v.1.15,2013-02-04 11:28:00,
2013-02-04 05:33:00,9.5,7.6,29.98,NNW,327,3.0,8.0,92,0.00,,,0.01,Wunderground v.1.15,2013-02-04 11:33:00,
2013-02-04 05:38:00,9.4,7.5,29.98,NNW,327,2.0,8.0,92,0.00,,,0.01,Wunderground v.1.15,2013-02-04 11:38:00,
2013-02-04 05:43:00,9.4,7.5,29.98,NNW,327,3.0,8.0,92,0.00,,,0.01,Wunderground v.1.15,2013-02-04 11:43:00,
2013-02-04 05:48:00,9.3,7.4,29.99,NNW,327,4.0,8.0,92,0.00,,,0.01,Wunderground v.1.15,2013-02-04 11:48:00,
2013-02-04 05:53:00,9.2,7.3,29.99,NNW,327,3.0,6.0,92,0.00,,,0.01,Wunderground v.1.15,2013-02-04 11:53:00,
2013-02-04 05:58:00,9.1,7.2,29.99,NNW,327,4.0,6.0,92,0.00,,,0.01,Wunderground v.1.15,2013-02-04 11:58:00,
2013-02-04 06:03:00,8.9,7.1,29.98,NNW,327,5.0,8.0,92,0.00,,,0.01,Wunderground v.1.15,2013-02-04 12:03:00,
2013-02-04 06:08:00,8.7,6.9,29.98,NNW,327,2.0,8.0,92,0.00,,,0.01,Wunderground v.1.15,2013-02-04 12:08:00,
2013-02-04 06:13:00,8.5,6.7,29.98,NNW,327,3.0,7.0,92,0.00,,,0.01,Wunderground v.1.15,2013-02-04 12:13:00,
2013-02-04 06:18:00,8.5,6.7,29.98,NNW,327,3.0,7.0,92,0.00,,,0.01,Wunderground v.1.15,2013-02-04 12:18:00,
2013-02-04 06:23:00,8.5,6.7,29.99,NNW,327,4.0,5.0,92,0.00,,,0.01,Wunderground v.1.15,2013-02-04 12:23:00,
2013-02-04 06:28:00,8.4,6.6,29.99,NNW,327,5.0,5.0,92,0.00,,,0.00,Wunderground v.1.15,2013-02-04 12:28:00,
2013-02-04 06:33:00,8.3,6.5,29.99,NNW,327,2.0,5.0,92,0.00,,,0.00,Wunderground v.1.15,2013-02-04 12:33:00,
2013-02-04 06:38:00,8.2,6.4,29.99,NNW,327,3.0,5.0,92,0.00,,,0.00,Wunderground v.1.15,2013-02-04 12:38:00,
2013-02-04 06:43:00,8.2,6.4,29.99,NNW,327,5.0,8.0,92,0.00,,,0.00,Wunderground v.1.15,2013-02-04 12:43:00,
2013-02-04 06:48:00,8.1,6.3,29.99,NNW,327,2.0,8.0,92,0.00,,,0.00,Wunderground v.1.15,2013-02-04 12:48:00,
2013-02-04 06:53:00,8.1,6.3,29.99,NNW,327,2.0,5.0,92,0.00,,,0.00,Wunderground v.1.15,2013-02-04 12:53:00,
2013-02-04 06:58:00,8.1,6.3,29.99,NNW,327,5.0,6.0,92,0.00,,,0.00,Wunderground v.1.15,2013-02-04 12:58:00,
2013-02-04 07:03:00,8.1,6.3,30.00,NNW,327,1.0,4.0,92,0.00,,,0.00,Wunderground v.1.15,2013-02-04 13:03:00,
2013-02-04 07:08:00,8.1,6.3,29.99,NNW,327,4.0,5.0,92,0.00,,,0.00,Wunderground v.1.15,2013-02-04 13:08:00,
2013-02-04 07:13:00,8.0,6.2,30.00,NNW,327,3.0,7.0,92,0.00,,,0.00,Wunderground v.1.15,2013-02-04 13:13:00,
2013-02-04 07:18:00,8.0,6.2,29.99,NNW,327,3.0,7.0,92,0.00,,,0.00,Wunderground v.1.15,2013-02-04 13:18:00,
2013-02-04 07:23:00,8.1,6.3,30.00,NNW,327,4.0,5.0,92,0.00,,,0.00,Wunderground v.1.15,2013-02-04 13:23:00,
2013-02-04 07:28:00,8.0,6.2,30.00,NNW,327,3.0,6.0,92,0.00,,,0.00,Wunderground v.1.15,2013-02-04 13:28:00,
2013-02-04 07:33:00,8.1,6.3,30.00,NNW,327,4.0,6.0,92,0.00,,,0.00,Wunderground v.1.15,2013-02-04 13:33:00,
2013-02-04 07:38:00,8.1,6.3,30.00,NNW,327,2.0,6.0,92,0.00,,,0.00,Wunderground v.1.15,2013-02-04 13:38:00,
2013-02-04 07:43:00,8.1,6.3,30.00,NNW,327,1.0,5.0,92,0.00,,,0.00,Wunderground v.1.15,2013-02-04 13:43:00,
2013-02-04 07:48:00,8.0,6.2,30.00,NNW,327,0.0,5.0,92,0.00,,,0.00,Wunderground v.1.15,2013-02-04 13:48:00,
2013-02-04 07:53:00,8.1,6.3,30.00,NNW,327,2.0,4.0,92,0.00,,,0.00,Wunderground v.1.15,2013-02-04 13:53:00,
2013-02-04 07:58:00,8.1,6.3,30.00,NNW,327,0.0,5.0,92,0.00,,,0.00,Wunderground v.1.15,2013-02-04 13:58:00,
2013-02-04 08:03:00,8.0,6.2,30.00,NNW,327,2.0,5.0,92,0.00,,,0.00,Wunderground v.1.15,2013-02-04 14:03:00,
2013-02-04 08:08:00,8.1,6.3,30.00,NNW,327,2.0,5.0,92,0.00,,,0.00,Wunderground v.1.15,2013-02-04 14:08:00,
2013-02-04 08:13:00,8.1,6.3,30.01,NNW,327,1.0,6.0,92,0.00,,,0.00,Wunderground v.1.15,2013-02-04 14:13:00,
2013-02-04 08:18:00,8.2,6.4,30.01,NNW,327,0.0,6.0,92,0.00,,,0.00,Wunderground v.1.15,2013-02-04 14:18:00,
2013-02-04 08:23:00,8.3,6.5,30.01,NNW,327,0.0,5.0,92,0.00,,,0.00,Wunderground v.1.15,2013-02-04 14:23:00,
2013-02-04 08:28:00,8.3,6.5,30.01,NNW,327,0.0,5.0,92,0.00,,,0.00,Wunderground v.1.15,2013-02-04 14:28:00,
2013-02-04 08:33:00,8.4,6.6,30.01,NNW,327,1.0,4.0,92,0.00,,,0.00,Wunderground v.1.15,2013-02-04 14:33:00,
2013-02-04 08:38:00,8.4,6.6,30.01,NNW,327,2.0,5.0,92,0.00,,,0.00,Wunderground v.1.15,2013-02-04 14:38:00,
2013-02-04 08:43:00,8.3,6.5,30.01,NNW,327,0.0,4.0,92,0.00,,,0.00,Wunderground v.1.15,2013-02-04 14:43:00,
2013-02-04 08:48:00,8.5,6.7,30.01,NNW,327,0.0,4.0,92,0.00,,,0.00,Wunderground v.1.15,2013-02-04 14:48:00,
2013-02-04 08:53:00,8.4,6.6,30.01,NNW,327,0.0,7.0,92,0.00,,,0.00,Wunderground v.1.15,2013-02-04 14:53:00,
2013-02-04 08:58:00,8.5,6.7,30.01,NNW,327,2.0,7.0,92,0.00,,,0.00,Wunderground v.1.15,2013-02-04 14:58:00,
2013-02-04 09:03:00,8.4,6.6,30.01,NNW,327,0.0,4.0,92,0.00,,,0.00,Wunderground v.1.15,2013-02-04 15:03:00,
2013-02-04 09:08:00,8.5,6.7,30.01,NNW,327,2.0,4.0,92,0.00,,,0.00,Wunderground v.1.15,2013-02-04 15:08:00,
2013-02-04 09:13:00,8.5,6.7,30.01,NNW,327,1.0,6.0,92,0.00,,,0.00,Wunderground v.1.15,2013-02-04 15:13:00,
2013-02-04 09:18:00,8.5,6.7,30.01,NNW,327,3.0,6.0,92,0.00,,,0.00,Wunderground v.1.15,2013-02-04 15:18:00,
2013-02-04 09:24:00,8.5,6.7,30.01,NNW,327,2.0,3.0,92,0.00,,,0.00,Wunderground v.1.15,2013-02-04 15:24:00,
2013-02-04 09:29:00,8.7,6.9,30.01,NNW,327,5.0,5.0,92,0.00,,,0.00,Wunderground v.1.15,2013-02-04 15:29:00,
2013-02-04 09:34:00,8.7,6.9,30.01,NNW,327,2.0,3.0,92,0.00,,,0.00,Wunderground v.1.15,2013-02-04 15:34:00,
2013-02-04 09:39:00,8.8,7.0,30.01,NNW,327,0.0,5.0,92,0.00,,,0.00,Wunderground v.1.15,2013-02-04 15:39:00,
2013-02-04 09:44:00,8.9,7.1,30.01,NNW,327,0.0,3.0,92,0.00,,,0.00,Wunderground v.1.15,2013-02-04 15:44:00,
2013-02-04 09:49:00,9.0,7.1,30.01,NNW,327,0.0,4.0,92,0.00,,,0.00,Wunderground v.1.15,2013-02-04 15:49:00,
2013-02-04 09:54:00,9.1,7.2,30.01,NNW,327,1.0,3.0,92,0.00,,,0.00,Wunderground v.1.15,2013-02-04 15:54:00,
2013-02-04 09:59:00,9.3,7.4,30.01,NNW,327,0.0,4.0,92,0.00,,,0.00,Wunderground v.1.15,2013-02-04 15:59:00,
2013-02-04 10:04:00,9.5,7.6,30.01,NNW,327,2.0,2.0,92,0.00,,,0.00,Wunderground v.1.15,2013-02-04 16:04:00,
2013-02-04 10:09:00,9.4,7.5,30.02,NNW,327,0.0,6.0,92,0.00,,,0.00,Wunderground v.1.15,2013-02-04 16:09:00,
2013-02-04 10:14:00,9.7,7.8,30.02,NNW,327,0.0,3.0,92,0.00,,,0.00,Wunderground v.1.15,2013-02-04 16:14:00,
2013-02-04 10:19:00,10.0,8.1,30.02,NNW,327,3.0,4.0,92,0.00,,,0.00,Wunderground v.1.15,2013-02-04 16:19:00,
2013-02-04 10:24:00,10.0,8.1,30.02,NNW,327,0.0,4.0,92,0.00,,,0.00,Wunderground v.1.15,2013-02-04 16:24:00,
2013-02-04 10:29:00,10.1,8.2,30.02,NNW,327,2.0,4.0,92,0.00,,,0.00,Wunderground v.1.15,2013-02-04 16:29:00,
2013-02-04 10:34:00,10.1,8.2,30.02,NNW,327,2.0,3.0,92,0.00,,,0.00,Wunderground v.1.15,2013-02-04 16:34:00,
2013-02-04 10:39:00,10.2,8.3,30.02,NNW,327,2.0,4.0,92,0.00,,,0.00,Wunderground v.1.15,2013-02-04 16:39:00,
2013-02-04 10:44:00,10.4,8.3,30.02,NNW,327,0.0,5.0,91,0.00,,,0.00,Wunderground v.1.15,2013-02-04 16:44:00,
2013-02-04 10:49:00,10.4,8.3,30.03,NNW,327,0.0,5.0,91,0.00,,,0.00,Wunderground v.1.15,2013-02-04 16:49:00,
2013-02-04 10:54:00,10.7,8.6,30.03,NNW,327,2.0,4.0,91,0.00,,,0.00,Wunderground v.1.15,2013-02-04 16:54:00,
2013-02-04 10:59:00,10.7,8.6,30.03,NNW,327,2.0,6.0,91,0.00,,,0.00,Wunderground v.1.15,2013-02-04 16:59:00,
2013-02-04 11:04:00,10.8,8.7,30.03,NNW,327,3.0,5.0,91,0.00,,,0.00,Wunderground v.1.15,2013-02-04 17:04:00,
2013-02-04 11:09:00,10.9,8.8,30.02,NNW,327,2.0,5.0,91,0.00,,,0.00,Wunderground v.1.15,2013-02-04 17:09:00,
2013-02-04 11:14:00,11.1,8.7,30.02,NNW,327,2.0,5.0,90,0.00,,,0.00,Wunderground v.1.15,2013-02-04 17:14:00,
2013-02-04 11:19:00,11.6,9.5,30.03,NNW,327,2.0,5.0,91,0.00,,,0.00,Wunderground v.1.15,2013-02-04 17:19:00,
2013-02-04 11:24:00,11.7,9.3,30.03,NNW,327,4.0,5.0,90,0.00,,,0.00,Wunderground v.1.15,2013-02-04 17:24:00,
2013-02-04 11:29:00,11.6,9.2,30.03,NNW,327,2.0,6.0,90,0.00,,,0.00,Wunderground v.1.15,2013-02-04 17:29:00,
2013-02-04 11:34:00,11.6,9.2,30.03,NNW,327,3.0,3.0,90,0.00,,,0.00,Wunderground v.1.15,2013-02-04 17:34:00,
2013-02-04 11:39:00,11.6,9.2,30.03,NNW,327,4.0,6.0,90,0.00,,,0.00,Wunderground v.1.15,2013-02-04 17:39:00,
2013-02-04 11:44:00,11.8,9.2,30.03,NNW,327,2.0,5.0,89,0.00,,,0.00,Wunderground v.1.15,2013-02-04 17:44:00,
2013-02-04 11:49:00,12.0,9.4,30.03,NNW,327,2.0,5.0,89,0.00,,,0.00,Wunderground v.1.15,2013-02-04 17:49:00,
2013-02-04 11:54:00,12.5,9.9,30.03,NNW,327,0.0,4.0,89,0.00,,,0.00,Wunderground v.1.15,2013-02-04 17:54:00,
2013-02-04 11:59:00,12.6,10.0,30.02,NNW,327,3.0,7.0,89,0.00,,,0.00,Wunderground v.1.15,2013-02-04 17:59:00,
2013-02-04 12:04:00,12.9,10.0,30.02,NNW,327,0.0,6.0,88,0.00,,,0.00,Wunderground v.1.15,2013-02-04 18:04:00,
2013-02-04 12:09:00,13.4,10.5,30.02,NNW,327,0.0,6.0,88,0.00,,,0.00,Wunderground v.1.15,2013-02-04 18:09:00,
2013-02-04 12:14:00,14.1,11.5,30.02,NNW,327,0.0,3.0,89,0.00,,,0.00,Wunderground v.1.15,2013-02-04 18:14:00,
2013-02-04 12:19:00,14.2,11.3,30.02,NNW,327,2.0,6.0,88,0.00,,,0.00,Wunderground v.1.15,2013-02-04 18:19:00,
2013-02-04 12:24:00,14.0,10.8,30.03,NNW,327,3.0,6.0,87,0.00,,,0.00,Wunderground v.1.15,2013-02-04 18:24:00,
2013-02-04 12:29:00,14.0,10.8,30.03,NNW,327,3.0,6.0,87,0.00,,,0.00,Wunderground v.1.15,2013-02-04 18:29:00,
2013-02-04 12:34:00,14.0,10.8,30.03,NNW,327,0.0,7.0,87,0.00,,,0.00,Wunderground v.1.15,2013-02-04 18:34:00,
2013-02-04 12:39:00,14.2,11.0,30.03,NNW,327,2.0,7.0,87,0.00,,,0.00,Wunderground v.1.15,2013-02-04 18:39:00,
2013-02-04 12:44:00,14.0,10.6,30.03,NNW,327,3.0,5.0,86,0.00,,,0.00,Wunderground v.1.15,2013-02-04 18:44:00,
2013-02-04 12:49:00,14.0,10.6,30.03,NNW,327,5.0,8.0,86,0.00,,,0.00,Wunderground v.1.15,2013-02-04 18:49:00,
2013-02-04 12:54:00,13.9,10.5,30.03,NNW,327,3.0,8.0,86,0.00,,,0.00,Wunderground v.1.15,2013-02-04 18:54:00,
2013-02-04 12:59:00,14.0,10.6,30.03,NNW,327,1.0,10.0,86,0.00,,,0.00,Wunderground v.1.15,2013-02-04 18:59:00,
2013-02-04 13:04:00,13.8,10.4,30.03,NNW,327,1.0,7.0,86,0.00,,,0.00,Wunderground v.1.15,2013-02-04 19:04:00,
2013-02-04 13:09:00,14.1,10.7,30.03,NNW,327,0.0,8.0,86,0.00,,,0.00,Wunderground v.1.15,2013-02-04 19:09:00,
2013-02-04 13:14:00,14.4,11.0,30.03,NNW,327,0.0,9.0,86,0.00,,,0.00,Wunderground v.1.15,2013-02-04 19:14:00,
2013-02-04 13:19:00,14.9,11.7,30.03,NNW,327,2.0,9.0,87,0.00,,,0.00,Wunderground v.1.15,2013-02-04 19:19:00,
2013-02-04 13:24:00,14.7,11.3,30.02,NNW,327,0.0,7.0,86,0.00,,,0.00,Wunderground v.1.15,2013-02-04 19:24:00,
2013-02-04 13:29:00,14.9,11.5,30.01,NNW,327,1.0,7.0,86,0.00,,,0.00,Wunderground v.1.15,2013-02-04 19:29:00,
2013-02-04 13:34:00,15.2,11.8,30.00,NNW,327,0.0,3.0,86,0.00,,,0.00,Wunderground v.1.15,2013-02-04 19:34:00,
2013-02-04 13:39:00,15.6,12.2,30.00,NNW,327,0.0,5.0,86,0.00,,,0.00,Wunderground v.1.15,2013-02-04 19:39:00,
2013-02-04 13:44:00,15.6,12.2,30.00,NNW,327,0.0,2.0,86,0.00,,,0.00,Wunderground v.1.15,2013-02-04 19:44:00,
2013-02-04 13:49:00,16.1,12.7,30.00,NNW,327,0.0,3.0,86,0.00,,,0.00,Wunderground v.1.15,2013-02-04 19:49:00,
2013-02-04 13:54:00,16.1,12.7,30.00,NNW,327,2.0,3.0,86,0.00,,,0.00,Wunderground v.1.15,2013-02-04 19:54:00,
2013-02-04 13:59:00,15.5,11.8,30.00,NNW,327,0.0,6.0,85,0.00,,,0.00,Wunderground v.1.15,2013-02-04 19:59:00,
2013-02-04 14:04:00,15.3,11.6,29.99,NNW,327,0.0,4.0,85,0.00,,,0.00,Wunderground v.1.15,2013-02-04 20:04:00,
2013-02-04 14:09:00,15.5,12.1,29.99,NNW,327,0.0,4.0,86,0.00,,,0.00,Wunderground v.1.15,2013-02-04 20:09:00,
2013-02-04 14:14:00,15.7,12.3,30.00,NNW,327,2.0,6.0,86,0.00,,,0.00,Wunderground v.1.15,2013-02-04 20:14:00,
2013-02-04 14:19:00,15.3,11.3,30.00,NNW,327,0.0,6.0,84,0.00,,,0.00,Wunderground v.1.15,2013-02-04 20:19:00,
2013-02-04 14:24:00,15.4,11.7,29.99,NNW,327,0.0,6.0,85,0.00,,,0.00,Wunderground v.1.15,2013-02-04 20:24:00,
2013-02-04 14:29:00,15.5,11.8,30.00,NNW,327,0.0,6.0,85,0.00,,,0.00,Wunderground v.1.15,2013-02-04 20:29:00,
2013-02-04 14:34:00,15.1,11.4,30.00,NNW,327,3.0,5.0,85,0.00,,,0.00,Wunderground v.1.15,2013-02-04 20:34:00,
2013-02-04 14:39:00,14.5,10.3,30.00,NNW,327,2.0,7.0,83,0.00,,,0.00,Wunderground v.1.15,2013-02-04 20:39:00,
2013-02-04 14:44:00,14.6,10.6,30.00,NNW,327,0.0,3.0,84,0.00,,,0.00,Wunderground v.1.15,2013-02-04 20:44:00,
2013-02-04 14:49:00,15.1,11.4,30.00,NNW,327,2.0,4.0,85,0.00,,,0.00,Wunderground v.1.15,2013-02-04 20:49:00,
2013-02-04 14:54:00,15.3,11.3,30.00,NNW,327,1.0,5.0,84,0.00,,,0.00,Wunderground v.1.15,2013-02-04 20:54:00,
2013-02-04 14:59:00,15.2,11.2,30.00,NNW,327,0.0,5.0,84,0.00,,,0.00,Wunderground v.1.15,2013-02-04 20:59:00,
2013-02-04 15:04:00,15.3,11.3,30.00,NNW,327,0.0,4.0,84,0.00,,,0.00,Wunderground v.1.15,2013-02-04 21:04:00,
2013-02-04 15:09:00,15.5,11.8,30.00,NNW,327,0.0,4.0,85,0.00,,,0.00,Wunderground v.1.15,2013-02-04 21:09:00,
2013-02-04 15:14:00,15.8,12.1,30.00,NNW,327,0.0,1.0,85,0.00,,,0.00,Wunderground v.1.15,2013-02-04 21:14:00,
2013-02-04 15:19:00,16.2,12.2,30.00,NNW,327,0.0,3.0,84,0.00,,,0.00,Wunderground v.1.15,2013-02-04 21:19:00,
2013-02-04 15:24:00,16.4,12.1,30.00,NNW,327,0.0,4.0,83,0.00,,,0.00,Wunderground v.1.15,2013-02-04 21:24:00,
2013-02-04 15:29:00,16.0,11.7,30.00,NNW,327,0.0,4.0,83,0.00,,,0.00,Wunderground v.1.15,2013-02-04 21:29:00,
2013-02-04 15:34:00,16.1,11.8,30.00,NNW,327,0.0,2.0,83,0.00,,,0.00,Wunderground v.1.15,2013-02-04 21:34:00,
2013-02-04 15:39:00,16.2,11.9,30.00,NNW,327,0.0,2.0,83,0.00,,,0.00,Wunderground v.1.15,2013-02-04 21:39:00,
2013-02-04 15:44:00,16.3,12.0,30.00,NNW,327,0.0,5.0,83,0.00,,,0.00,Wunderground v.1.15,2013-02-04 21:44:00,
2013-02-04 15:49:00,16.3,12.0,29.99,NNW,327,0.0,5.0,83,0.00,,,0.00,Wunderground v.1.15,2013-02-04 21:49:00,
2013-02-04 15:54:00,16.8,12.5,30.00,NNW,327,0.0,1.0,83,0.00,,,0.00,Wunderground v.1.15,2013-02-04 21:54:00,
2013-02-04 15:59:00,16.7,12.4,30.00,NNW,327,0.0,1.0,83,0.00,,,0.00,Wunderground v.1.15,2013-02-04 21:59:00,
2013-02-04 16:04:00,16.6,12.3,30.00,NNW,327,0.0,0.0,83,0.00,,,0.00,Wunderground v.1.15,2013-02-04 22:04:00,
2013-02-04 16:09:00,16.7,12.4,30.00,NNW,327,0.0,0.0,83,0.00,,,0.00,Wunderground v.1.15,2013-02-04 22:09:00,
2013-02-04 16:15:00,16.6,12.3,30.00,NNW,327,0.0,0.0,83,0.00,,,0.00,Wunderground v.1.15,2013-02-04 22:15:00,
2013-02-04 16:20:00,16.1,11.8,30.00,NNW,327,0.0,2.0,83,0.00,,,0.00,Wunderground v.1.15,2013-02-04 22:20:00,
2013-02-04 16:25:00,15.6,11.1,30.00,NNW,327,0.0,0.0,82,0.00,,,0.00,Wunderground v.1.15,2013-02-04 22:25:00,
2013-02-04 16:30:00,15.2,10.7,30.00,NNW,327,0.0,0.0,82,0.00,,,0.00,Wunderground v.1.15,2013-02-04 22:30:00,
2013-02-04 16:35:00,14.8,10.6,29.99,NNW,327,0.0,0.0,83,0.00,,,0.00,Wunderground v.1.15,2013-02-04 22:35:00,
2013-02-04 16:40:00,14.4,10.2,30.00,NNW,327,0.0,0.0,83,0.00,,,0.00,Wunderground v.1.15,2013-02-04 22:40:00,
2013-02-04 16:45:00,14.0,9.8,29.99,NNW,327,0.0,1.0,83,0.00,,,0.00,Wunderground v.1.15,2013-02-04 22:45:00,
2013-02-04 16:50:00,13.7,9.5,29.99,NNW,327,0.0,1.0,83,0.00,,,0.00,Wunderground v.1.15,2013-02-04 22:50:00,
2013-02-04 16:55:00,13.2,9.0,30.00,NNW,327,0.0,0.0,83,0.00,,,0.00,Wunderground v.1.15,2013-02-04 22:55:00,
2013-02-04 17:00:00,12.8,8.6,30.00,NNW,327,0.0,0.0,83,0.00,,,0.00,Wunderground v.1.15,2013-02-04 23:00:00,
2013-02-04 17:05:00,12.6,8.4,30.00,NNW,327,0.0,0.0,83,0.00,,,0.00,Wunderground v.1.15,2013-02-04 23:05:00,
2013-02-04 17:10:00,12.3,8.4,30.00,NNW,327,0.0,0.0,84,0.00,,,0.00,Wunderground v.1.15,2013-02-04 23:10:00,
2013-02-04 17:15:00,11.9,8.0,30.00,NNW,327,0.0,0.0,84,0.00,,,0.00,Wunderground v.1.15,2013-02-04 23:15:00,
2013-02-04 17:20:00,11.6,7.7,30.00,NNW,327,0.0,0.0,84,0.00,,,0.00,Wunderground v.1.15,2013-02-04 23:20:00,
2013-02-04 17:25:00,11.4,7.5,30.00,NNW,327,0.0,0.0,84,0.00,,,0.00,Wunderground v.1.15,2013-02-04 23:25:00,
2013-02-04 17:30:00,11.2,7.3,30.00,NNW,327,0.0,0.0,84,0.00,,,0.00,Wunderground v.1.15,2013-02-04 23:30:00,
2013-02-04 17:35:00,11.1,7.2,30.00,NNW,327,0.0,0.0,84,0.00,,,0.00,Wunderground v.1.15,2013-02-04 23:35:00,
2013-02-04 17:40:00,11.0,7.1,30.00,NNW,327,0.0,0.0,84,0.00,,,0.00,Wunderground v.1.15,2013-02-04 23:40:00,
2013-02-04 17:45:00,11.0,7.1,30.00,NNW,327,0.0,0.0,84,0.00,,,0.00,Wunderground v.1.15,2013-02-04 23:45:00,
2013-02-04 17:50:00,10.9,7.3,30.00,NNW,327,0.0,0.0,85,0.00,,,0.00,Wunderground v.1.15,2013-02-04 23:50:00,
2013-02-04 17:55:00,10.8,7.2,30.00,NNW,327,0.0,0.0,85,0.00,,,0.00,Wunderground v.1.15,2013-02-04 23:55:00,
2013-02-04 18:00:00,10.8,7.2,30.00,NNW,327,0.0,0.0,85,0.00,,,0.00,Wunderground v.1.15,2013-02-05 00:00:00,
2013-02-04 18:05:00,10.8,7.2,30.00,NNW,327,0.0,0.0,85,0.00,,,0.00,Wunderground v.1.15,2013-02-05 00:05:00,
2013-02-04 18:10:00,10.8,7.2,30.00,NNW,327,0.0,0.0,85,0.00,,,0.00,Wunderground v.1.15,2013-02-05 00:10:00,
2013-02-04 18:16:00,11.0,7.4,30.00,NNW,327,0.0,0.0,85,0.00,,,0.00,Wunderground v.1.15,2013-02-05 00:16:00,
2013-02-04 18:21:00,11.1,7.5,30.00,NNW,327,0.0,0.0,85,0.00,,,0.00,Wunderground v.1.15,2013-02-05 00:21:00,
2013-02-04 18:26:00,11.3,7.7,30.00,NNW,327,0.0,0.0,85,0.00,,,0.00,Wunderground v.1.15,2013-02-05 00:26:00,
2013-02-04 18:31:00,11.5,7.9,30.00,NNW,327,0.0,0.0,85,0.00,,,0.00,Wunderground v.1.15,2013-02-05 00:31:00,
2013-02-04 18:36:00,11.6,8.0,30.00,NNW,327,0.0,0.0,85,0.00,,,0.00,Wunderground v.1.15,2013-02-05 00:36:00,
2013-02-04 18:41:00,11.6,8.0,30.01,NNW,327,0.0,0.0,85,0.00,,,0.00,Wunderground v.1.15,2013-02-05 00:41:00,
2013-02-04 18:46:00,11.4,7.8,30.01,NNW,327,0.0,0.0,85,0.00,,,0.00,Wunderground v.1.15,2013-02-05 00:46:00,
2013-02-04 18:51:00,11.3,7.7,30.01,NNW,327,0.0,0.0,85,0.00,,,0.00,Wunderground v.1.15,2013-02-05 00:51:00,
2013-02-04 18:56:00,11.2,7.6,30.01,NNW,327,0.0,0.0,85,0.00,,,0.00,Wunderground v.1.15,2013-02-05 00:56:00,
2013-02-04 19:01:00,11.0,7.4,30.02,NNW,327,0.0,0.0,85,0.00,,,0.00,Wunderground v.1.15,2013-02-05 01:01:00,
2013-02-04 19:06:00,11.0,7.4,30.02,NNW,327,0.0,0.0,85,0.00,,,0.00,Wunderground v.1.15,2013-02-05 01:06:00,
2013-02-04 19:11:00,11.1,7.5,30.02,NNW,327,0.0,0.0,85,0.00,,,0.00,Wunderground v.1.15,2013-02-05 01:11:00,
2013-02-04 19:16:00,11.1,7.5,30.02,NNW,327,0.0,0.0,85,0.00,,,0.00,Wunderground v.1.15,2013-02-05 01:16:00,
2013-02-04 19:21:00,11.2,7.6,30.02,NNW,327,0.0,0.0,85,0.00,,,0.00,Wunderground v.1.15,2013-02-05 01:21:00,
2013-02-04 19:26:00,11.2,7.6,30.02,NNW,327,0.0,0.0,85,0.00,,,0.00,Wunderground v.1.15,2013-02-05 01:26:00,
2013-02-04 19:31:00,11.0,7.6,30.02,NNW,327,0.0,0.0,86,0.00,,,0.00,Wunderground v.1.15,2013-02-05 01:31:00,
2013-02-04 19:36:00,10.9,7.5,30.02,NNW,327,0.0,0.0,86,0.00,,,0.00,Wunderground v.1.15,2013-02-05 01:36:00,
2013-02-04 19:41:00,10.9,7.5,30.02,NNW,327,0.0,0.0,86,0.00,,,0.00,Wunderground v.1.15,2013-02-05 01:41:00,
2013-02-04 19:46:00,11.2,7.6,30.02,NNW,327,0.0,0.0,85,0.00,,,0.00,Wunderground v.1.15,2013-02-05 01:46:00,
2013-02-04 19:51:00,11.3,7.7,30.02,NNW,327,0.0,0.0,85,0.00,,,0.00,Wunderground v.1.15,2013-02-05 01:51:00,
2013-02-04 19:56:00,11.3,7.7,30.02,NNW,327,0.0,0.0,85,0.00,,,0.00,Wunderground v.1.15,2013-02-05 01:56:00,
2013-02-04 20:01:00,11.4,7.8,30.02,NNW,327,0.0,0.0,85,0.00,,,0.00,Wunderground v.1.15,2013-02-05 02:01:00,
2013-02-04 20:06:00,11.5,7.9,30.01,NNW,327,0.0,0.0,85,0.00,,,0.00,Wunderground v.1.15,2013-02-05 02:06:00,
2013-02-04 20:11:00,11.5,7.9,30.01,NNW,327,0.0,0.0,85,0.00,,,0.00,Wunderground v.1.15,2013-02-05 02:11:00,
2013-02-04 20:16:00,11.6,8.0,30.01,NNW,327,0.0,0.0,85,0.00,,,0.00,Wunderground v.1.15,2013-02-05 02:16:00,
2013-02-04 20:21:00,11.6,7.7,30.01,NNW,327,0.0,0.0,84,0.00,,,0.00,Wunderground v.1.15,2013-02-05 02:21:00,
2013-02-04 20:26:00,11.7,7.8,30.01,NNW,327,0.0,0.0,84,0.00,,,0.00,Wunderground v.1.15,2013-02-05 02:26:00,
2013-02-04 20:31:00,11.7,7.8,30.01,NNW,327,0.0,1.0,84,0.00,,,0.00,Wunderground v.1.15,2013-02-05 02:31:00,
2013-02-04 20:36:00,11.7,7.8,30.01,NNW,327,0.0,1.0,84,0.00,,,0.00,Wunderground v.1.15,2013-02-05 02:36:00,
2013-02-04 20:41:00,11.5,7.6,30.01,NNW,327,0.0,0.0,84,0.00,,,0.00,Wunderground v.1.15,2013-02-05 02:41:00,
2013-02-04 20:46:00,11.3,7.4,30.00,NNW,327,0.0,0.0,84,0.00,,,0.00,Wunderground v.1.15,2013-02-05 02:46:00,
2013-02-04 20:51:00,11.2,7.0,30.01,NNW,327,0.0,0.0,83,0.00,,,0.00,Wunderground v.1.15,2013-02-05 02:51:00,
2013-02-04 20:56:00,11.0,7.1,30.01,NNW,327,0.0,0.0,84,0.00,,,0.00,Wunderground v.1.15,2013-02-05 02:56:00,
2013-02-04 21:01:00,10.8,6.9,30.00,NNW,327,0.0,0.0,84,0.00,,,0.00,Wunderground v.1.15,2013-02-05 03:01:00,
2013-02-04 21:06:00,10.6,6.7,30.00,NNW,327,0.0,0.0,84,0.00,,,0.00,Wunderground v.1.15,2013-02-05 03:06:00,
2013-02-04 21:11:00,10.6,6.7,30.00,NNW,327,0.0,0.0,84,0.00,,,0.00,Wunderground v.1.15,2013-02-05 03:11:00,
2013-02-04 21:16:00,10.5,6.6,30.00,NNW,327,0.0,0.0,84,0.00,,,0.00,Wunderground v.1.15,2013-02-05 03:16:00,
2013-02-04 21:21:00,10.8,7.2,30.00,NNW,327,0.0,0.0,85,0.00,,,0.00,Wunderground v.1.15,2013-02-05 03:21:00,
2013-02-04 21:26:00,10.9,7.3,30.00,NNW,327,0.0,0.0,85,0.00,,,0.00,Wunderground v.1.15,2013-02-05 03:26:00,
2013-02-04 21:31:00,11.0,7.1,30.00,NNW,327,0.0,0.0,84,0.00,,,0.00,Wunderground v.1.15,2013-02-05 03:31:00,
2013-02-04 21:36:00,11.2,7.0,30.00,NNW,327,0.0,0.0,83,0.00,,,0.00,Wunderground v.1.15,2013-02-05 03:36:00,
2013-02-04 21:42:00,11.3,7.1,30.00,NNW,327,0.0,0.0,83,0.00,,,0.00,Wunderground v.1.15,2013-02-05 03:42:00,
2013-02-04 21:47:00,11.3,7.1,30.00,NNW,327,0.0,0.0,83,0.00,,,0.00,Wunderground v.1.15,2013-02-05 03:47:00,
2013-02-04 21:52:00,11.3,7.1,30.00,NNW,327,0.0,0.0,83,0.00,,,0.00,Wunderground v.1.15,2013-02-05 03:52:00,
2013-02-04 21:57:00,11.3,7.1,30.00,NNW,327,0.0,0.0,83,0.00,,,0.00,Wunderground v.1.15,2013-02-05 03:57:00,
2013-02-04 22:02:00,11.2,7.0,30.00,NNW,327,0.0,0.0,83,0.00,,,0.00,Wunderground v.1.15,2013-02-05 04:02:00,
2013-02-04 22:07:00,11.0,6.8,29.99,NNW,327,0.0,0.0,83,0.00,,,0.00,Wunderground v.1.15,2013-02-05 04:07:00,
2013-02-04 22:12:00,10.9,6.8,29.99,NNW,327,0.0,0.0,83,0.00,,,0.00,Wunderground v.1.15,2013-02-05 04:12:00,
2013-02-04 22:17:00,10.8,6.7,29.99,NNW,327,0.0,0.0,83,0.00,,,0.00,Wunderground v.1.15,2013-02-05 04:17:00,
2013-02-04 22:22:00,10.9,7.0,29.99,NNW,327,0.0,0.0,84,0.00,,,0.00,Wunderground v.1.15,2013-02-05 04:22:00,
2013-02-04 22:27:00,11.0,7.1,29.98,NNW,327,0.0,2.0,84,0.00,,,0.00,Wunderground v.1.15,2013-02-05 04:27:00,
2013-02-04 22:32:00,10.8,6.9,29.98,NNW,327,0.0,0.0,84,0.00,,,0.00,Wunderground v.1.15,2013-02-05 04:32:00,
2013-02-04 22:37:00,10.6,6.7,29.98,NNW,327,0.0,0.0,84,0.00,,,0.00,Wunderground v.1.15,2013-02-05 04:37:00,
2013-02-04 22:42:00,10.4,6.5,29.97,NNW,327,0.0,0.0,84,0.00,,,0.00,Wunderground v.1.15,2013-02-05 04:42:00,
2013-02-04 22:47:00,10.1,6.2,29.97,NNW,327,0.0,1.0,84,0.00,,,0.00,Wunderground v.1.15,2013-02-05 04:47:00,
2013-02-04 22:52:00,9.9,6.3,29.97,NNW,327,0.0,0.0,85,0.00,,,0.00,Wunderground v.1.15,2013-02-05 04:52:00,
2013-02-04 22:57:00,9.8,6.2,29.97,NNW,327,0.0,0.0,85,0.00,,,0.00,Wunderground v.1.15,2013-02-05 04:57:00,
2013-02-04 23:00:00,9.7,6.1,29.97,NNW,327,1.0,2.0,85,0.00,,,0.00,Wunderground v.1.15,2013-02-05 05:00:00,
2013-02-04 23:05:00,9.6,6.0,29.97,NNW,327,0.0,3.0,85,0.00,,,0.00,Wunderground v.1.15,2013-02-05 05:05:00,
2013-02-04 23:10:00,9.5,6.2,29.97,NNW,327,0.0,0.0,86,0.00,,,0.00,Wunderground v.1.15,2013-02-05 05:10:00,
2013-02-04 23:15:00,9.2,5.9,29.96,NNW,327,0.0,0.0,86,0.00,,,0.00,Wunderground v.1.15,2013-02-05 05:15:00,
2013-02-04 23:20:00,9.0,5.7,29.96,NNW,327,1.0,1.0,86,0.00,,,0.00,Wunderground v.1.15,2013-02-05 05:20:00,
2013-02-04 23:25:00,8.8,5.5,29.96,NNW,327,1.0,3.0,86,0.00,,,0.00,Wunderground v.1.15,2013-02-05 05:25:00,
2013-02-04 23:30:00,8.6,5.3,29.96,NNW,327,2.0,2.0,86,0.00,,,0.00,Wunderground v.1.15,2013-02-05 05:30:00,
2013-02-04 23:35:00,8.5,5.2,29.96,NNW,327,3.0,4.0,86,0.00,,,0.00,Wunderground v.1.15,2013-02-05 05:35:00,
2013-02-04 23:40:00,8.5,5.2,29.96,NNW,327,3.0,3.0,86,0.00,,,0.00,Wunderground v.1.15,2013-02-05 05:40:00,
2013-02-04 23:45:00,8.4,5.3,29.96,NNW,327,4.0,4.0,87,0.00,,,0.00,Wunderground v.1.15,2013-02-05 05:45:00,
2013-02-04 23:50:00,8.4,5.3,29.95,NNW,327,2.0,3.0,87,0.00,,,0.00,Wunderground v.1.15,2013-02-05 05:50:00,
2013-02-04 23:55:00,8.4,5.3,29.95,NNW,327,2.0,6.0,87,0.00,,,0.00,Wunderground v.1.15,2013-02-05 05:55:00,